Waterville, ME

5:09 PM EDT on July 23, 2017 (GMT -0400)
Waterville Lafleur

Weather History for KWVL - February, 2014

Change the Weather History Date:

Thursday, February 6, 2014

  Actual Average Record
Temperature  
Mean Temperature 10 °F -  
Max Temperature 19 °F 29 °F 44 °F (2005)
Min Temperature 0 °F 5 °F -17 °F (1988)
Degree Days  
Heating Degree Days 56    
Moisture  
Dew Point 5 °F    
Average Humidity 75    
Maximum Humidity 100    
Minimum Humidity 49    
Precipitation  
Precipitation 0.00 in - - ()
Sea Level Pressure  
Sea Level Pressure 30.07 in    
Wind  
Wind Speed 3 mph (WNW)    
Max Wind Speed 9 mph    
Max Gust Speed -    
Visibility 10 miles    
Events      
Averages and records for this station are not official NWS values.
T = Trace of Precipitation, MM = Missing Value Source: NWS Daily Summary

Daily Weather History Graph

Daily Weather History Graph

Search for Another Location

Airport or City:

Trip Planner

Search our weather history database for the weather conditions in past years. The results will help you decide how hot, cold, wet, or windy it might be!

Date:

Astronomy

Feb. 06, 2014 Rise Set
Actual Time 6:51 AM EST 4:54 PM EST
Civil Twilight 6:20 AM EST 5:25 PM EST
Nautical Twilight 5:46 AM EST 6:00 PM EST
Astronomical Twilight 5:12 AM EST 6:33 PM EST
Moon 10:24 AM EST (2/6) 12:03 AM EST (2/6)
Length of Visible Light 11h 04m
Length of Day
10h 03m
Waxing Crescent, 49% of the Moon is Illuminated
Feb 6
Waxing Crescent
Feb 6
First Quarter
Feb 14
Full
Feb 22
Last Quarter
Mar 1
New

Hourly Weather History & Observations

Time (EST) Temp. Windchill Dew Point Humidity Pressure Visibility Wind Dir Wind Speed Gust Speed Precip Events Conditions
12:15 AM 15.8 °F - 12.2 °F 86% 29.86 in 4.0 mi Calm Calm - N/A   Clear
12:35 AM 12.2 °F - 10.4 °F 92% 29.87 in 9.0 mi Calm Calm - N/A   Clear
12:55 AM 12.2 °F 4.3 °F 10.4 °F 92% 29.88 in 10.0 mi NW 4.6 mph - N/A   Clear
1:15 AM 10.4 °F 0.8 °F 6.8 °F 85% 29.89 in 10.0 mi NNW 5.8 mph - N/A   Clear
1:35 AM 10.4 °F 2.2 °F 10.4 °F 100% 29.90 in 10.0 mi NNW 4.6 mph - N/A   Clear
1:55 AM 12.2 °F 4.3 °F 10.4 °F 92% 29.91 in 10.0 mi NNW 4.6 mph - N/A   Clear
2:15 AM 10.4 °F 4.0 °F 8.6 °F 92% 29.92 in 10.0 mi NNW 3.5 mph - N/A   Clear
2:35 AM 12.2 °F 1.7 °F 8.6 °F 85% 29.94 in 10.0 mi North 6.9 mph - N/A   Clear
2:55 AM 10.4 °F 2.2 °F 8.6 °F 92% 29.95 in 10.0 mi NNW 4.6 mph - N/A   Scattered Clouds
3:15 AM 12.2 °F 6.1 °F 8.6 °F 85% 29.96 in 10.0 mi North 3.5 mph - N/A   Partly Cloudy
3:35 AM 8.6 °F - 6.8 °F 92% 29.97 in 10.0 mi Calm Calm - N/A   Clear
3:55 AM 8.6 °F 0.1 °F 6.8 °F 92% 29.98 in 10.0 mi North 4.6 mph - N/A   Clear
4:15 AM 6.8 °F -2.0 °F 1.4 °F 79% 29.99 in 10.0 mi North 4.6 mph - N/A   Clear
4:35 AM 8.6 °F -1.3 °F 5.0 °F 85% 30.00 in 10.0 mi North 5.8 mph - N/A   Clear
4:55 AM 8.6 °F - 3.2 °F 79% 30.02 in 10.0 mi Calm Calm - N/A   Scattered Clouds
5:15 AM 8.6 °F 0.1 °F 5.0 °F 85% 30.03 in 10.0 mi NNE 4.6 mph - N/A   Mostly Cloudy
5:35 AM 6.8 °F -2.0 °F 3.2 °F 85% 30.04 in 10.0 mi North 4.6 mph - N/A   Partly Cloudy
5:55 AM 6.8 °F -2.0 °F 5.0 °F 92% 30.05 in 10.0 mi North 4.6 mph - N/A   Clear
6:15 AM 5.0 °F - 1.4 °F 85% 30.07 in 10.0 mi Calm Calm - N/A   Clear
6:35 AM 3.2 °F - 1.4 °F 92% 30.08 in 10.0 mi Calm Calm - N/A   Clear
6:55 AM 1.4 °F - 1.4 °F 100% 30.09 in 10.0 mi Calm Calm - N/A   Clear
7:15 AM -0.4 °F -8.3 °F -0.4 °F 100% 30.10 in 10.0 mi NW 3.5 mph - N/A   Clear
7:35 AM 3.2 °F - 1.4 °F 92% 30.11 in 10.0 mi Calm Calm - N/A   Clear
7:55 AM 6.8 °F - 6.8 °F 100% 30.12 in 10.0 mi Calm Calm - N/A   Clear
8:15 AM 8.6 °F 2.0 °F 6.8 °F 92% 30.12 in 10.0 mi East 3.5 mph - N/A   Clear
8:35 AM 8.6 °F - 6.8 °F 92% 30.13 in 10.0 mi Calm Calm - N/A   Clear
8:55 AM 8.6 °F 2.0 °F 6.8 °F 92% 30.13 in 10.0 mi North 3.5 mph - N/A   Clear
9:15 AM 10.4 °F - 5.0 °F 79% 30.14 in 10.0 mi Calm Calm - N/A   Clear
9:35 AM 10.4 °F - 3.2 °F 73% 30.14 in 10.0 mi Calm Calm - N/A   Clear
9:55 AM 12.2 °F - 6.8 °F 79% 30.15 in 10.0 mi Calm Calm - N/A   Clear
10:15 AM 12.2 °F - 5.0 °F 73% 30.15 in 10.0 mi Calm Calm - N/A   Clear
10:35 AM 12.2 °F - 5.0 °F 73% 30.16 in 10.0 mi Calm Calm - N/A   Clear
10:55 AM 15.8 °F 8.6 °F 6.8 °F 68% 30.16 in 10.0 mi WSW 4.6 mph - N/A   Clear
11:15 AM 15.8 °F - 5.0 °F 62% 30.15 in 10.0 mi Calm Calm - N/A   Clear
11:35 AM 17.6 °F - 5.0 °F 58% 30.15 in 3.0 mi Calm Calm - N/A   Clear
11:55 AM 17.6 °F 8.2 °F 3.2 °F 53% 30.13 in 10.0 mi WNW 6.9 mph - N/A   Clear
12:15 PM 17.6 °F 6.4 °F 5.0 °F 58% 30.13 in 10.0 mi SW 9.2 mph - N/A   Clear
12:35 PM 17.6 °F 9.3 °F 5.0 °F 58% 30.12 in 10.0 mi SSW 5.8 mph - N/A   Clear
12:55 PM 17.6 °F - 3.2 °F 53% 30.12 in 10.0 mi Calm Calm - N/A   Clear
1:15 PM 17.6 °F 8.2 °F 3.2 °F 53% 30.12 in 10.0 mi West 6.9 mph - N/A   Clear
1:35 PM 19.4 °F 10.4 °F 3.2 °F 49% 30.12 in 10.0 mi SW 6.9 mph - N/A   Clear
1:55 PM 19.4 °F 14.3 °F 3.2 °F 49% 30.11 in 10.0 mi SW 3.5 mph - N/A   Clear
2:15 PM 19.4 °F 9.5 °F 3.2 °F 49% 30.11 in 10.0 mi WSW 8.1 mph - N/A   Clear
2:35 PM 19.4 °F 11.5 °F 3.2 °F 49% 30.10 in 10.0 mi SW 5.8 mph - N/A   Clear
2:55 PM 19.4 °F 12.8 °F 3.2 °F 49% 30.11 in 10.0 mi SW 4.6 mph - N/A   Clear
3:15 PM 19.4 °F 12.8 °F 3.2 °F 49% 30.11 in - SSW 4.6 mph - N/A   Clear
3:35 PM 19.4 °F 12.8 °F 3.2 °F 49% 30.11 in - WSW 4.6 mph - N/A   Clear
3:55 PM 19.4 °F 10.4 °F 3.2 °F 49% 30.11 in - West 6.9 mph - N/A   Clear
4:15 PM 19.4 °F 11.5 °F 3.2 °F 49% 30.11 in - WSW 5.8 mph - N/A   Clear
4:35 PM 19.4 °F 12.8 °F 3.2 °F 49% 30.11 in - WSW 4.6 mph - N/A   Clear
4:55 PM 19.4 °F 12.8 °F 3.2 °F 49% 30.11 in - West 4.6 mph - N/A   Clear
5:15 PM 19.4 °F - 3.2 °F 49% 30.11 in - Calm Calm - N/A   Clear
5:35 PM 15.8 °F - 1.4 °F 53% 30.11 in - Calm Calm - N/A   Clear
5:55 PM 15.8 °F - 3.2 °F 58% 30.11 in - Calm Calm - N/A   Clear
6:15 PM 15.8 °F - 3.2 °F 58% 30.11 in - Calm Calm - N/A   Clear
6:35 PM 10.4 °F - 3.2 °F 73% 30.11 in - Calm Calm - N/A   Clear
6:55 PM 12.2 °F - 6.8 °F 79% 30.10 in - Calm Calm - N/A   Clear
7:15 PM 12.2 °F - 6.8 °F 79% 30.10 in - Calm Calm - N/A   Clear
7:35 PM 12.2 °F 6.1 °F 5.0 °F 73% 30.10 in - SSW 3.5 mph - N/A   Clear
7:55 PM 12.2 °F 6.1 °F 6.8 °F 79% 30.10 in - SSW 3.5 mph - N/A   Clear
8:15 PM 12.2 °F 6.1 °F 6.8 °F 79% 30.10 in - SW 3.5 mph - N/A   Clear
8:35 PM 12.2 °F 2.9 °F 6.8 °F 79% 30.10 in - WSW 5.8 mph - N/A   Clear
8:55 PM 12.2 °F - 6.8 °F 79% 30.09 in - Calm Calm - N/A   Clear
9:15 PM 10.4 °F - 6.8 °F 85% 30.08 in - Calm Calm - N/A   Unknown
9:35 PM 10.4 °F 4.0 °F 6.8 °F 85% 30.08 in - West 3.5 mph - N/A   Unknown
9:55 PM 8.6 °F - 5.0 °F 85% 30.07 in - Calm Calm - N/A   Mostly Cloudy
10:15 PM 6.8 °F - 3.2 °F 85% 30.07 in - Calm Calm - N/A   Unknown
10:35 PM 6.8 °F - 5.0 °F 92% 30.07 in - Calm Calm - N/A   Unknown
10:55 PM 8.6 °F - 6.8 °F 92% 30.07 in - Calm Calm - N/A   Unknown
11:15 PM 8.6 °F - 3.2 °F 79% 30.07 in - Calm Calm - N/A   Scattered Clouds
11:35 PM 6.8 °F - 3.2 °F 85% 30.06 in - Calm Calm - N/A   Unknown
11:55 PM 8.6 °F - 6.8 °F 92% 30.06 in - Calm Calm - N/A   Unknown